Temp
31 29 29 29 30 32 33 34 34 35 36 36 35 32 30 29 30 35 35 34 37 32 27 28 29 29 29 29 29 29 27 26 25 25 28 29 29 29 30 31 31 32 32 32 32 32 31 31 31 30 30 30 29 29 28 28 28 27 27 27 26 26 26 26 26 26 26 26 26 27 27 27 27 26 27 27 27 27 26 26 25 25 24 24 24 24
30 28 29 31 33 34 34 34 35 35 35 35 34 31 30 30 31 35 36 34 36 34 27 28 30 30 29 29 29 28 26 26 26 26 27 27 28 29 30 30 31 32 32 33 32 32 32 31 31 30 30 30 29 29 28 28 28 27 27 27 26 26 26 26 26 26 26 27 27 27 27 27 27 27 27 27 27 27 26 25 25 25 25 24 24 24
28 28 31 33 34 34 34 34 34 34 34 33 33 30 27 30 33 34 36 36 35 33 30 30 30 30 31 30 29 27 26 27 28 28 26 27 27 27 29 30 29 30 32 32 32 32 32 31 31 30 30 30 29 29 28 28 28 27 27 27 26 26 26 26 26 26 26 27 27 27 27 28 28 27 27 27 27 27 27 26 25 25 25 24 24 24
25 28 33 34 34 34 33 34 34 33 33 33 33 29 26 31 32 28 32 36 36 34 34 33 31 30 32 31 30 29 30 30 30 29 28 29 29 27 28 28 26 28 31 31 31 32 32 32 31 31 30 30 29 29 28 28 28 28 27 27 26 26 26 26 26 26 26 26 26 27 27 27 27 27 27 27 27 27 27 26 26 25 25 25 25 25
28 31 34 34 33 34 33 33 34 31 30 32 33 30 29 33 33 30 33 36 35 35 37 35 29 28 32 32 32 33 33 33 32 31 30 31 31 29 29 28 27 29 31 31 31 32 32 32 31 31 30 30 30 29 29 29 28 28 28 27 26 26 26 26 26 26 26 26 26 26 26 27 27 27 27 27 27 27 27 27 27 26 25 25 25 25
31 33 34 33 33 33 33 33 33 31 29 29 33 34 34 35 35 34 35 34 29 28 34 34 24 24 31 33 33 34 33 33 32 32 31 30 31 30 29 29 29 29 29 30 31 32 32 32 32 31 30 30 30 30 29 29 29 29 28 27 26 26 26 26 26 25 26 25 25 26 26 26 26 26 27 27 27 27 27 27 27 26 26 26 25 25
32 34 33 33 33 32 32 32 33 33 29 26 32 36 36 37 36 34 33 30 25 25 33 35 26 23 27 30 32 33 32 32 32 31 30 29 29 29 29 29 29 28 28 30 31 32 33 32 32 31 30 31 31 30 30 30 29 29 28 27 26 26 26 26 26 25 25 25 25 26 26 27 26 26 27 27 27 27 27 28 27 27 26 26 26 26
33 33 32 32 32 31 31 31 33 34 29 27 34 37 35 35 34 34 33 29 28 30 33 35 30 24 23 27 32 33 31 31 32 30 28 26 28 30 29 28 28 28 29 30 30 30 32 32 32 31 30 31 31 30 30 30 30 29 28 27 26 26 26 26 26 25 25 25 25 26 26 27 27 27 27 27 27 27 27 27 27 27 26 26 26 26
33 32 31 31 31 30 31 32 34 34 31 31 36 36 35 35 34 35 33 29 30 30 25 29 31 25 22 26 31 31 29 28 29 29 27 25 27 29 30 28 28 28 28 29 29 29 30 32 32 31 30 31 31 31 30 30 30 29 28 27 26 26 26 26 26 25 25 25 25 26 26 27 27 27 27 27 27 27 27 27 27 27 26 26 26 25
33 31 31 31 31 31 32 34 34 33 33 34 35 35 35 35 34 34 32 29 28 26 23 25 29 24 22 25 27 27 26 28 29 30 29 28 26 27 28 28 28 27 26 27 28 28 29 30 31 31 30 30 31 30 30 30 30 29 28 27 26 26 26 26 26 25 25 25 25 26 26 27 27 27 27 27 27 27 26 26 26 26 26 26 26 25
32 32 32 32 32 33 33 34 34 33 34 34 34 33 33 33 34 33 31 29 25 23 24 26 28 26 22 23 26 27 28 30 31 31 31 32 30 28 28 27 26 25 25 26 26 27 28 29 31 31 30 30 31 30 29 29 30 28 28 27 26 26 26 26 26 25 25 25 25 26 26 26 26 26 27 26 27 26 26 26 26 26 26 26 26 26
32 31 31 32 33 34 34 33 34 34 34 34 33 31 28 28 29 27 27 27 23 22 25 27 29 27 22 23 28 30 30 31 31 31 31 31 31 32 30 28 27 25 24 24 24 26 27 28 30 31 30 30 30 29 28 29 29 28 28 27 26 26 26 26 26 25 26 26 26 26 26 26 26 26 26 26 26 26 26 26 26 26 26 26 26 26
30 31 31 32 32 33 33 32 32 32 33 33 32 28 24 23 24 23 23 23 23 23 26 29 29 26 23 25 30 31 31 31 31 31 31 31 31 32 31 30 30 28 27 26 27 26 26 28 30 30 30 29 29 28 28 28 28 27 27 27 27 26 26 26 26 26 26 26 26 26 26 26 26 26 26 26 26 26 26 26 26 26 26 26 26 26
26 29 31 31 31 32 32 30 27 28 31 31 29 25 23 22 22 22 22 23 23 23 26 30 29 24 23 27 31 31 31 31 31 30 30 31 31 31 31 31 30 29 29 29 29 29 28 28 30 29 29 29 29 30 29 29 29 27 27 27 27 27 26 26 26 26 26 26 26 26 26 26 26 26 26 26 26 26 27 27 27 27 27 26 26 26
23 24 29 30 30 31 32 32 30 31 31 31 32 30 25 23 23 22 22 22 23 23 25 28 27 23 22 27 31 31 31 31 31 31 31 31 31 31 31 31 30 29 29 29 29 29 29 29 29 29 29 28 29 30 30 29 29 27 26 27 26 26 26 26 26 26 26 26 26 26 26 26 26 26 26 26 26 27 27 27 27 27 27 27 27 27
23 23 29 31 31 32 31 32 34 33 30 31 34 30 26 27 27 24 23 24 23 23 24 25 25 25 26 29 32 31 31 31 30 30 31 30 31 30 30 31 31 30 29 29 29 29 28 29 29 28 28 28 28 29 30 30 29 27 26 26 26 26 26 26 26 26 26 26 26 26 26 26 26 26 26 26 26 26 27 27 27 27 27 27 27 27
23 24 30 30 30 32 31 32 34 31 28 30 30 27 29 34 32 24 23 25 24 23 24 24 23 25 27 29 31 32 30 30 30 29 29 29 29 29 28 29 30 30 29 29 29 28 28 27 27 26 27 27 27 28 29 29 28 27 26 26 26 26 26 26 26 26 26 26 26 26 26 26 26 26 27 27 27 27 27 27 27 27 27 27 27 27
26 23 29 30 29 31 32 31 33 32 31 29 27 28 33 34 33 27 23 23 24 23 24 24 23 23 23 25 29 32 30 30 29 28 28 28 28 28 27 27 28 29 30 30 29 29 28 26 24 24 25 27 27 27 28 28 28 27 27 27 27 26 26 26 25 26 26 26 26 26 26 26 27 27 27 27 27 27 27 27 27 27 27 27 27 27
29 23 26 31 29 30 32 30 29 31 33 31 29 32 32 27 26 25 23 23 23 23 23 24 23 23 22 24 28 30 30 29 28 28 27 27 27 27 27 26 27 28 29 30 30 29 28 28 27 25 25 26 26 25 26 27 27 27 27 26 26 25 24 25 25 26 26 26 27 27 26 26 27 27 27 28 28 27 27 27 27 27 28 28 27 27
30 24 23 29 31 30 30 29 26 27 31 32 31 33 32 28 26 25 24 24 23 23 23 23 22 22 24 26 29 29 29 28 27 27 27 26 26 25 25 25 25 26 28 29 29 28 29 29 29 27 26 26 25 25 25 25 25 26 26 26 25 23 23 23 25 26 26 26 27 27 27 27 27 27 27 28 28 28 28 28 28 28 28 28 28 28
30 26 23 27 30 28 27 28 28 27 29 30 28 28 29 30 29 28 26 26 24 23 23 23 22 22 24 27 29 28 28 27 26 26 25 25 25 24 24 24 24 25 26 27 28 28 28 29 29 28 26 25 25 24 24 25 25 24 24 24 24 24 23 24 25 25 26 27 27 28 27 27 27 27 27 28 28 28 28 28 28 28 28 28 28 28
28 27 24 24 26 25 26 30 30 29 30 30 28 28 28 28 27 25 24 25 25 24 23 23 22 21 24 27 28 27 27 27 27 26 25 25 24 24 24 23 23 23 24 26 26 27 27 27 28 27 26 26 25 24 24 24 24 24 23 23 24 25 25 25 26 26 26 27 27 28 27 27 27 27 27 28 28 28 28 28 28 28 28 28 28 28
27 27 24 23 25 26 28 30 29 29 30 31 30 31 32 31 27 23 22 24 24 24 25 24 21 21 25 27 27 27 27 27 26 26 25 24 24 24 23 23 23 23 23 24 25 26 26 26 26 26 25 25 24 23 23 23 23 23 23 23 25 26 26 27 27 26 27 27 27 27 27 27 27 27 28 28 28 28 28 28 28 28 28 28 28 28
26 26 24 22 25 28 28 29 30 30 30 29 30 31 32 31 30 27 26 26 24 24 24 23 21 21 25 27 27 27 26 26 26 26 25 24 24 24 23 23 23 22 22 22 23 24 25 24 24 24 24 24 23 22 21 22 23 23 23 24 24 24 25 27 27 27 27 26 27 27 27 26 27 28 28 28 29 29 29 29 29 28 28 28 29 29
25 25 24 22 22 24 25 26 26 27 28 29 30 31 31 31 31 30 28 27 24 23 24 23 21 21 25 27 27 26 27 26 26 25 25 24 24 24 23 23 22 22 22 22 22 22 23 23 23 23 23 23 23 22 21 22 23 23 22 23 23 23 23 25 26 27 27 27 27 27 27 27 27 28 28 28 29 30 29 30 30 29 28 28 29 29
25 25 24 22 21 21 21 22 23 25 27 28 29 30 30 30 30 28 26 24 23 23 24 23 21 22 25 26 26 26 26 26 26 26 25 25 24 24 24 23 23 23 22 22 22 21 21 21 22 22 23 23 23 23 22 22 22 23 23 23 22 22 23 25 26 27 26 27 28 27 27 28 28 28 28 27 28 30 30 30 30 30 29 29 29 29
26 26 25 22 22 22 21 22 26 28 26 26 27 28 28 29 30 28 25 23 23 24 23 22 22 22 23 25 26 26 26 25 26 26 25 25 25 25 24 24 23 23 22 22 22 21 20 20 21 22 22 23 23 22 23 23 22 23 23 23 23 23 24 25 26 26 26 26 27 27 28 28 28 28 28 28 28 29 30 30 30 30 30 29 29 29
25 24 25 24 23 24 25 25 27 29 27 25 26 26 27 29 29 27 25 24 25 24 21 23 24 22 23 25 25 25 25 26 25 26 26 26 26 25 25 25 24 24 23 23 22 22 21 20 20 21 21 22 22 22 22 22 22 22 23 23 23 24 24 24 24 25 26 27 27 26 27 28 28 28 28 27 27 29 30 30 30 30 30 30 29 29
24 23 25 25 24 25 27 26 27 28 27 27 27 26 27 28 28 26 25 27 27 24 22 23 24 23 24 26 25 25 25 25 25 25 26 26 26 25 25 25 25 24 24 23 22 22 21 21 21 20 20 20 21 21 21 21 21 22 22 22 22 22 23 23 23 24 25 26 27 26 26 26 26 27 27 27 28 28 29 29 30 30 30 30 30 30
24 23 25 25 24 24 26 26 27 27 26 26 26 27 27 28 28 27 27 28 28 26 25 25 25 25 25 25 25 25 25 25 24 25 25 25 25 25 25 25 25 24 24 23 23 22 22 22 21 21 20 20 20 21 21 20 20 21 21 21 22 21 21 22 23 23 24 25 26 26 26 26 26 25 26 26 28 28 28 28 29 29 29 30 30 30
23 22 24 25 23 23 25 26 26 26 25 25 26 26 27 27 27 27 27 28 28 27 27 26 24 24 25 25 25 25 24 24 23 23 23 24 24 24 24 24 24 24 23 23 23 22 22 22 22 21 21 21 20 20 20 20 20 21 21 21 21 21 21 21 23 24 24 24 24 25 25 26 26 26 25 26 27 27 27 27 28 28 28 29 29 29
24 23 23 23 22 22 24 25 25 26 25 24 24 25 26 26 26 27 27 28 27 26 26 24 22 23 25 25 24 24 24 24 23 23 22 22 23 24 24 23 23 23 23 22 22 22 22 22 22 21 21 21 21 20 20 20 20 20 20 20 20 20 20 20 21 23 23 23 24 23 24 24 24 25 25 25 25 25 25 24 25 27 28 28 28 28
24 23 23 23 21 21 23 24 24 24 23 22 24 26 27 27 27 27 27 27 28 27 26 23 22 23 24 24 24 24 24 24 23 23 22 22 22 22 23 23 23 23 23 22 22 21 21 22 22 21 21 21 21 20 20 20 20 20 20 20 20 20 19 19 20 21 22 22 22 22 22 22 22 23 23 24 24 24 24 22 22 23 25 27 28 28
23 23 23 23 21 21 23 23 23 22 21 21 25 27 27 27 27 26 26 27 27 27 27 26 24 24 24 24 24 24 24 24 23 22 22 22 22 22 22 22 22 22 22 22 22 22 21 21 21 21 20 21 21 20 20 20 20 21 21 20 21 20 20 19 20 20 21 21 21 22 22 22 21 22 22 23 23 24 24 23 22 22 22 23 25 27
23 23 23 23 22 22 22 22 21 20 21 23 25 25 25 26 26 26 26 26 26 26 26 26 25 24 25 25 24 24 24 24 23 22 22 22 22 22 21 21 21 22 22 22 22 22 21 21 21 20 20 20 20 20 20 20 20 21 21 21 21 21 20 20 20 20 20 20 20 21 21 21 21 21 21 22 22 22 23 23 23 22 22 22 22 24
22 23 23 23 22 22 21 21 20 20 22 23 23 24 24 25 25 24 23 24 26 26 25 25 25 25 26 26 24 23 24 24 23 22 22 22 22 22 22 21 21 21 21 22 22 21 21 21 21 20 20 20 21 21 20 20 20 20 21 21 21 21 20 21 21 20 20 19 20 20 20 21 21 21 21 21 21 21 22 22 22 22 22 22 22 23
22 22 22 22 22 22 21 21 21 20 21 22 22 23 24 24 24 24 22 23 25 25 25 25 24 25 26 26 24 23 24 25 23 22 22 22 22 22 22 22 21 21 21 22 21 21 21 21 20 20 20 21 21 21 20 20 20 20 20 21 21 21 20 21 22 21 20 19 19 19 20 20 20 21 21 20 21 21 21 21 22 22 23 22 23 23
21 21 21 21 22 22 21 21 21 20 20 21 22 23 23 23 24 24 23 22 23 24 25 24 24 24 25 25 25 24 23 23 23 22 22 22 22 22 22 22 22 22 21 21 21 22 21 20 20 20 20 21 21 21 20 20 20 20 20 21 21 21 21 21 22 21 20 19 19 20 20 20 20 21 21 20 20 21 21 21 21 22 22 22 22 23
21 21 21 21 21 21 21 20 21 21 20 21 22 22 23 23 23 23 22 21 22 24 24 24 24 24 24 24 24 23 22 23 23 23 22 22 22 22 22 22 22 22 21 21 21 21 20 20 19 20 21 21 21 20 20 20 20 20 20 20 20 21 22 22 21 21 20 20 19 19 20 20 20 21 20 20 20 20 20 21 21 21 21 22 22 23
21 21 21 21 21 21 21 21 21 21 21 21 21 22 23 23 22 21 20 20 22 23 23 24 23 23 23 23 22 22 22 22 22 22 22 22 22 22 21 21 21 21 21 21 21 20 19 20 20 20 21 21 20 20 20 20 20 20 20 20 20 21 21 21 21 20 20 20 20 20 19 20 20 20 20 20 20 21 21 21 21 21 21 21 21 22
20 21 21 21 21 21 21 20 21 21 20 21 22 22 22 22 21 20 20 20 22 22 23 23 23 23 22 22 21 22 23 22 20 20 21 22 21 21 21 21 21 21 21 20 20 19 19 20 20 20 21 20 20 20 20 20 20 20 19 19 19 20 21 20 20 20 19 19 19 20 20 20 20 20 20 20 20 20 21 21 20 20 20 20 21 21
20 20 21 21 21 21 21 21 21 20 20 21 22 21 21 21 20 20 20 21 21 21 22 22 23 22 22 21 21 22 22 21 21 21 21 21 21 21 21 20 20 20 20 20 19 19 19 20 20 20 20 20 20 20 20 20 20 19 19 19 19 19 20 20 19 19 19 19 19 20 20 20 20 20 20 20 20 20 21 21 21 20 20 21 21 21
21 20 20 21 21 21 20 20 20 20 20 21 21 21 21 20 20 20 21 21 21 21 21 21 22 22 21 21 21 21 21 20 20 20 20 20 20 20 20 20 19 19 19 19 19 19 19 19 19 19 19 19 19 19 19 19 19 19 18 18 18 18 18 18 18 18 18 19 19 19 20 20 20 20 20 21 21 21 21 21 21 21 21 21 21 21
21 20 20 21 22 21 20 20 20 20 21 21 21 21 21 21 20 21 21 21 20 21 21 21 21 21 20 20 20 20 20 19 19 19 19 19 20 20 20 19 19 18 18 19 19 18 18 18 18 18 18 18 18 18 18 18 18 18 18 18 18 18 18 18 18 18 18 18 19 19 20 20 20 20 21 21 21 21 21 21 21 22 22 21 21 21
21 21 20 20 21 21 21 20 20 21 21 21 21 21 21 21 21 21 21 21 20 21 21 21 20 20 20 20 20 19 19 19 19 19 19 19 19 20 19 19 18 18 18 18 18 17 17 17 17 17 17 18 18 18 18 18 18 18 18 18 17 17 17 17 17 17 17 18 18 19 19 20 20 20 21 21 21 22 22 22 22 22 22 22 22 22
21 21 20 20 21 21 21 21 21 21 21 21 21 21 21 20 21 21 21 21 21 20 20 20 20 20 19 19 19 19 19 19 18 18 18 18 19 19 18 18 18 17 17 17 17 16 16 16 16 17 17 17 17 17 17 17 17 17 17 17 17 17 17 17 17 17 17 17 18 18 18 19 20 20 21 21 21 21 22 22 22 22 22 22 22 22
21 20 20 20 20 20 20 21 21 21 21 21 21 21 20 20 20 20 20 20 21 20 20 20 19 19 19 19 18 18 18 18 18 18 18 18 18 18 18 18 17 17 17 16 16 16 15 16 16 16 16 16 16 16 17 17 17 17 16 16 16 17 17 17 17 17 17 17 17 18 18 19 19 20 21 21 22 22 22 23 23 23 23 23 23 23
21 20 20 20 20 20 20 21 21 21 21 21 21 21 20 20 20 20 20 20 20 20 20 20 19 19 19 18 18 18 18 18 18 17 17 17 18 18 17 17 17 17 16 16 16 15 15 15 15 15 15 16 16 15 16 16 16 16 16 16 16 16 16 16 16 17 17 17 18 18 19 20 20 20 21 22 22 23 23 24 24 24 24 24 24 24
20 19 20 19 19 20 20 21 20 20 20 20 21 21 21 21 20 20 20 20 20 19 19 19 19 19 19 19 18 18 17 17 18 17 17 17 18 17 17 17 16 16 16 16 16 15 15 15 15 15 15 15 15 15 15 15 15 15 15 15 16 16 16 16 17 17 17 17 18 18 19 20 20 21 21 22 22 23 23 23 23 23 23 23 23 23
18 19 20 20 19 19 20 21 20 19 19 20 20 21 21 21 21 21 20 20 19 19 19 18 19 19 19 18 18 18 17 17 18 17 17 17 17 17 17 16 16 16 16 16 15 15 15 15 15 15 15 15 15 15 15 15 15 15 15 15 16 16 16 16 16 17 17 17 18 18 19 20 20 21 21 21 22 22 22 22 22 22 21 21 21 21
18 17 17 18 19 19 19 19 19 18 18 20 20 20 21 21 21 21 20 20 19 19 19 18 18 18 18 18 18 18 18 18 17 17 17 17 17 17 16 16 16 16 16 16 15 15 15 15 15 15 15 15 15 14 15 15 15 15 15 15 16 16 16 16 16 16 17 17 18 18 18 19 19 20 20 20 20 20 21 21 21 21 21 21 20 20
Height
761 770 773 771 765 760 756 752 747 741 738 740 741 749 757 756 747 743 751 747 740 765 790 789 784 785 787 784 780 779 781 787 793 792 785 782 784 786 785 784 784 785 785 785 790 793 797 801 804 808 811 814 817 820 823 826 828 830 832 834 836 839 841 842 844 846 847 848 850 851 852 853 854 855 856 856 857 858 859 860 861 862 863 864 865 866
762 772 768 760 754 749 748 747 745 742 744 746 742 748 756 754 748 742 747 749 741 757 785 788 781 782 784 782 780 780 784 789 791 791 790 786 785 785 785 785 785 783 782 784 788 791 795 799 802 806 810 813 816 819 822 824 827 829 831 833 835 837 840 841 843 844 846 847 848 850 851 852 853 854 855 856 857 858 859 860 861 862 863 864 865 866
771 771 759 750 746 744 746 746 747 749 753 753 746 751 761 753 748 749 747 746 745 756 773 778 781 782 777 776 779 781 785 788 785 784 788 787 787 788 785 786 788 786 784 785 787 790 793 796 800 804 808 811 814 817 820 823 825 828 830 832 834 836 838 840 842 843 845 846 847 849 850 851 852 853 855 856 856 858 859 860 861 862 863 864 865 866
775 766 750 743 743 746 751 750 750 755 757 755 750 756 761 749 748 758 753 746 746 750 757 765 775 779 774 774 776 775 774 775 776 777 778 778 780 785 784 786 791 790 787 786 786 787 790 794 797 801 805 808 811 815 818 821 823 826 828 831 833 835 837 839 841 843 844 846 847 849 850 851 852 853 854 856 857 858 858 859 861 862 862 863 864 865
764 752 741 741 745 749 754 753 753 761 763 756 750 751 753 744 742 750 748 746 748 746 745 755 770 773 769 773 772 765 764 767 770 773 775 773 772 777 782 785 788 787 785 786 786 786 788 791 795 799 803 806 808 812 815 818 820 823 826 829 831 834 836 838 840 842 843 845 847 848 850 851 852 853 854 855 856 857 858 859 860 861 862 863 864 865
753 740 737 744 748 750 754 756 756 761 762 758 751 742 740 738 737 746 750 751 762 764 750 753 777 780 765 768 772 764 765 769 769 773 777 776 775 778 782 784 783 783 784 784 783 784 787 790 793 797 801 803 806 809 812 815 818 821 824 827 830 832 834 836 838 840 842 844 846 847 849 850 851 853 853 854 856 856 858 858 859 861 862 863 863 864
745 736 738 744 749 755 758 757 754 755 761 761 748 738 738 737 736 747 754 759 768 767 748 745 773 791 780 775 775 769 772 774 771 775 780 780 780 781 782 783 782 784 785 783 782 783 786 789 793 796 799 801 804 807 810 812 815 818 822 825 828 830 832 835 837 839 841 842 844 846 847 849 850 851 852 854 855 856 857 857 858 860 861 862 863 864
741 741 747 748 752 759 761 758 751 750 762 757 737 734 744 746 744 745 753 761 756 748 748 746 757 785 795 787 776 771 779 781 776 779 785 785 783 779 781 782 783 784 783 784 786 786 786 789 792 795 799 800 802 805 808 810 813 816 820 823 826 828 831 833 835 837 839 841 843 844 846 847 849 850 851 853 854 855 856 857 858 859 860 862 862 863
738 747 755 754 758 761 756 751 745 747 759 748 730 735 743 749 751 747 753 760 749 748 763 756 750 779 800 789 778 780 788 792 787 784 789 792 787 779 779 783 784 784 783 784 787 788 787 789 791 794 798 800 801 803 806 808 811 815 818 821 824 827 829 831 833 836 837 839 841 843 845 846 847 849 850 852 853 855 856 856 858 859 860 861 862 863
740 746 750 753 759 757 749 743 740 746 753 742 737 743 744 748 751 751 758 757 754 763 769 756 749 778 804 794 788 798 797 793 788 782 782 785 786 784 780 781 782 783 786 786 786 786 787 788 789 793 797 799 800 802 806 807 810 814 817 820 823 825 828 830 832 834 836 838 840 842 843 845 846 848 849 851 852 854 855 856 857 858 859 860 861 862
739 740 743 748 749 745 741 739 738 743 744 739 747 755 754 756 754 757 760 755 769 779 765 754 746 768 812 810 791 796 792 783 782 780 776 773 775 779 779 781 783 784 787 788 787 786 787 789 788 791 795 797 798 802 806 808 809 812 815 818 821 823 826 828 830 833 835 837 838 840 842 843 845 847 848 849 851 853 854 855 857 858 859 859 860 861
744 746 746 744 738 736 739 742 740 741 741 742 754 762 767 771 768 771 770 767 787 785 759 754 743 753 804 810 785 784 782 776 778 779 777 774 772 770 772 777 782 785 788 789 791 790 789 790 788 790 794 796 799 802 805 808 809 812 814 817 820 822 825 827 829 832 834 836 837 839 841 842 844 846 847 848 850 851 853 854 856 857 858 859 859 860
753 752 749 745 739 738 743 748 750 749 747 751 759 765 775 785 787 793 789 783 791 777 751 752 748 755 788 792 779 780 779 777 778 777 777 775 773 771 770 773 774 778 783 785 787 788 789 789 788 789 793 795 799 802 804 806 809 812 814 816 818 821 823 826 828 830 832 834 836 838 839 841 843 845 846 847 849 850 852 853 855 856 856 858 858 859
761 757 750 750 750 744 743 752 763 762 757 760 762 766 775 784 797 807 798 789 789 773 751 743 751 777 796 786 776 777 776 775 775 776 777 773 772 772 770 771 773 775 777 778 780 782 785 787 787 789 791 793 796 798 800 804 807 811 813 815 818 819 822 824 826 829 831 833 835 836 838 840 842 843 845 846 848 849 851 852 853 854 855 856 857 858
769 769 754 753 754 749 746 745 750 752 754 759 753 754 765 767 783 798 790 786 785 773 759 745 752 783 798 785 773 772 773 773 774 775 774 771 770 770 769 769 772 775 777 778 779 780 782 785 787 789 790 792 794 795 798 801 805 809 812 815 817 819 821 823 825 827 830 832 834 835 837 838 840 842 843 845 847 848 849 850 852 853 853 855 856 857
761 762 746 747 746 744 750 743 736 745 755 753 744 754 761 749 755 769 766 764 766 768 763 754 761 777 781 776 768 768 773 774 776 778 776 776 773 773 776 772 772 776 778 779 779 780 782 783 786 789 790 792 794 795 797 800 803 807 810 814 816 818 820 821 823 826 828 830 832 833 835 837 839 840 842 843 845 846 848 849 850 852 853 854 854 855
754 758 747 750 750 744 749 744 739 750 756 751 752 759 751 733 738 755 757 749 753 770 762 754 777 788 782 782 772 769 778 778 779 783 782 784 782 782 785 781 777 778 779 779 779 780 781 783 786 791 793 793 793 796 798 800 803 806 809 811 814 817 818 820 822 824 826 828 830 832 833 835 837 838 840 841 843 845 846 848 849 850 852 852 853 854
744 761 754 752 758 751 744 746 745 744 746 753 758 751 739 735 738 749 763 759 761 775 758 747 781 797 794 797 783 772 781 783 784 788 788 789 789 789 791 789 786 781 778 778 777 778 782 784 790 796 796 793 793 797 799 800 803 805 808 810 812 815 816 818 821 823 825 826 827 830 831 833 834 836 838 839 841 843 844 846 848 849 850 851 852 853
739 762 762 750 757 754 746 755 760 748 741 746 747 739 741 754 757 759 771 771 768 774 760 751 774 788 789 793 784 779 785 786 789 792 792 794 795 795 795 793 791 786 780 778 777 781 783 784 787 792 794 792 793 798 801 802 804 805 807 809 812 815 815 818 820 821 823 824 825 827 828 830 832 834 836 837 839 841 842 844 845 847 848 849 851 852
741 760 768 753 750 753 754 760 767 761 748 744 745 741 739 744 752 759 763 760 760 765 764 769 787 795 791 784 781 786 788 789 795 797 797 798 798 799 799 796 794 791 786 782 780 782 782 781 782 784 788 790 792 797 800 803 805 806 807 809 813 816 817 819 820 820 821 821 821 823 825 827 829 831 833 835 836 838 839 841 843 844 846 847 849 850
748 756 766 759 751 757 761 757 759 760 754 752 756 754 747 741 742 751 753 747 750 757 762 777 800 808 798 787 786 790 791 792 797 800 801 801 800 801 801 799 798 795 791 787 785 785 785 784 783 783 786 790 793 796 798 801 804 807 810 811 812 814 816 817 817 818 819 819 820 821 823 825 826 828 830 832 834 835 837 839 840 842 844 845 847 848
756 756 758 762 761 761 759 751 751 755 752 752 754 752 749 746 748 763 765 748 741 747 749 765 800 816 802 790 789 791 792 794 795 799 802 803 803 803 803 803 802 800 797 794 791 791 791 791 789 787 788 791 794 797 798 801 802 806 811 813 811 811 812 813 814 815 817 818 819 821 822 823 824 826 828 829 831 833 834 836 838 839 841 842 844 846
762 762 758 760 761 758 756 752 752 755 751 749 750 746 741 741 748 764 770 756 746 743 736 754 803 821 800 787 790 791 793 795 796 799 803 804 804 804 804 805 804 804 804 802 799 798 798 798 796 794 794 795 796 798 800 802 804 807 811 811 809 809 809 809 811 814 816 817 818 819 821 822 823 824 826 827 829 830 831 833 835 837 838 839 841 843
766 767 766 767 762 755 756 755 751 752 753 755 754 747 743 742 743 748 754 753 753 748 741 766 814 825 800 788 791 793 794 796 797 800 802 805 805 805 807 807 806 807 807 806 806 804 803 801 799 798 799 799 800 800 801 803 806 809 811 810 809 810 810 808 809 812 814 815 816 817 819 820 821 823 824 825 826 827 828 830 832 834 836 837 838 840
772 769 771 778 778 774 774 772 767 763 761 760 755 749 750 749 746 749 751 755 762 754 743 766 807 816 799 791 793 794 795 798 799 800 802 805 805 806 807 808 808 808 807 808 808 807 805 803 802 802 802 802 804 805 806 808 810 811 811 810 811 813 812 809 809 810 812 814 814 815 817 818 819 820 822 824 824 824 825 827 828 831 833 834 836 837
775 772 775 786 792 793 793 787 777 769 764 761 757 756 760 757 755 758 759 765 774 763 752 773 802 808 799 794 795 796 797 800 801 800 802 805 806 806 806 807 808 808 808 808 808 809 809 808 806 805 804 804 805 807 809 810 810 809 810 812 812 812 811 810 809 809 811 812 813 814 815 816 817 818 820 822 822 821 822 824 825 827 829 831 833 834
774 774 777 787 790 789 791 783 766 757 760 763 764 766 766 760 759 762 763 767 770 764 769 788 800 805 806 800 798 799 798 801 802 801 803 804 804 805 806 807 808 808 809 809 809 810 811 811 810 809 808 807 807 807 807 807 807 807 808 811 811 810 808 808 809 809 810 811 812 813 814 814 815 816 817 819 820 820 820 820 822 824 825 828 830 832
778 778 777 782 784 780 778 776 766 758 760 764 767 769 768 765 765 766 766 767 765 769 788 796 792 799 805 798 798 801 800 802 804 803 804 803 802 804 805 806 807 808 809 810 811 811 811 812 813 812 812 811 810 809 809 808 808 807 807 809 810 809 808 807 808 809 809 810 811 812 813 813 814 815 816 817 818 818 818 818 820 821 823 825 827 828
782 781 776 777 782 778 774 773 771 767 767 769 770 771 770 768 767 766 766 767 764 772 791 796 791 795 798 794 798 801 800 803 805 804 804 803 804 806 805 806 807 808 810 811 812 813 813 814 814 814 815 813 812 812 811 810 810 809 809 810 810 810 810 809 809 809 808 809 810 812 812 813 814 814 815 816 816 816 817 817 818 819 820 822 823 825
784 785 780 780 782 781 778 776 774 773 774 773 773 773 772 769 768 768 768 766 763 767 779 786 789 792 792 793 798 799 801 804 806 807 806 806 808 809 808 809 809 810 812 813 813 814 815 816 817 817 816 815 814 814 813 812 812 811 811 812 812 813 812 811 811 810 809 809 810 811 811 812 813 813 814 814 814 815 815 816 817 818 819 820 821 823
787 791 787 784 785 785 782 778 777 777 777 775 775 775 773 772 772 772 770 767 767 770 774 781 791 796 793 792 797 800 803 807 810 813 813 811 810 810 811 812 813 813 814 815 816 816 816 817 818 818 818 817 816 816 815 815 814 814 814 814 814 814 813 813 812 811 811 811 810 811 811 811 811 811 812 812 813 814 815 816 816 817 818 819 820 821
787 790 789 791 795 789 782 781 780 778 777 778 778 777 775 774 773 772 771 769 770 773 778 789 800 802 795 794 799 801 804 808 812 814 816 816 814 813 814 815 815 816 816 817 818 818 817 817 818 818 818 818 818 817 817 817 816 816 816 815 815 815 814 814 813 812 812 812 812 811 811 811 810 810 811 811 812 813 815 818 818 818 818 818 819 821
787 790 789 793 798 791 783 784 782 782 789 788 778 771 772 772 772 773 774 772 770 771 779 792 800 798 795 798 803 805 806 808 811 812 815 819 818 817 817 817 817 818 818 819 820 820 820 820 819 819 819 818 818 818 818 818 818 818 818 817 817 816 815 815 814 814 813 813 813 812 810 811 811 811 812 812 812 813 814 817 819 821 821 820 819 819
791 793 787 787 793 792 787 787 789 795 802 793 774 768 770 771 774 778 780 777 776 775 774 781 790 793 796 801 804 805 805 807 812 815 816 817 819 820 820 819 819 819 819 820 820 821 822 822 822 822 821 820 820 819 819 819 819 819 818 818 817 817 816 816 815 815 815 814 814 813 812 812 812 812 812 812 813 814 814 815 817 820 823 824 822 821
795 794 789 788 790 787 787 796 807 809 800 786 777 775 776 775 775 778 782 781 781 781 780 782 789 793 794 796 800 803 803 806 812 816 816 817 818 819 821 822 822 821 821 822 822 822 823 823 823 823 823 822 821 820 820 819 819 819 818 818 818 817 817 816 816 816 816 816 815 814 813 813 813 813 812 812 813 814 815 816 816 818 821 825 826 825
796 794 790 789 788 787 792 804 813 809 793 785 787 784 782 783 783 786 793 791 783 783 785 787 790 791 789 791 799 804 804 805 812 816 817 818 818 819 821 823 823 823 822 822 823 824 824 824 824 824 824 823 822 821 821 820 820 819 818 818 818 818 818 817 816 816 816 816 816 815 815 815 814 813 813 813 814 814 814 816 817 817 818 821 824 825
799 798 795 792 789 791 795 795 797 803 801 796 795 791 786 788 787 789 797 796 787 784 786 789 793 792 789 792 800 805 804 805 813 817 817 817 818 819 820 821 823 824 824 824 824 824 824 825 825 825 824 823 822 822 822 821 821 820 819 818 818 818 817 817 815 815 816 816 816 816 816 816 815 815 814 814 814 814 814 815 815 815 815 816 817 818
800 801 802 801 794 790 794 793 794 804 807 798 792 789 787 788 787 787 795 800 794 789 788 791 796 797 796 797 800 805 809 812 814 815 815 817 818 818 820 821 822 823 824 825 825 824 825 826 826 825 825 823 822 822 822 822 822 821 820 819 819 818 817 816 816 816 816 817 817 818 818 818 817 816 815 814 814 814 813 813 814 812 812 812 812 812
802 801 801 804 798 791 796 799 794 797 801 796 792 790 789 791 789 791 801 805 798 792 791 793 797 800 802 804 804 808 815 815 812 811 812 816 818 819 820 821 822 823 825 825 825 825 826 827 826 825 824 823 823 823 823 823 822 821 821 820 820 819 818 817 817 817 817 817 818 818 818 818 818 817 815 813 812 813 812 812 812 811 810 810 809 809
804 801 799 803 801 793 796 797 788 790 796 795 793 792 790 790 793 802 813 808 796 793 795 795 798 802 803 806 810 812 813 814 815 815 814 815 819 820 821 822 822 823 824 824 825 827 827 827 826 825 824 824 824 824 823 822 822 822 822 821 821 819 819 819 818 818 818 817 817 816 817 817 818 817 815 812 811 811 811 811 810 811 811 810 808 807
804 801 798 800 797 792 796 796 789 793 799 794 790 792 792 793 801 811 815 806 796 796 798 796 799 804 805 808 812 811 810 813 818 819 817 818 821 822 823 824 824 824 824 824 825 826 826 825 825 825 825 824 824 824 823 822 822 822 821 821 821 820 819 819 818 818 818 817 817 816 815 816 817 817 816 814 812 812 812 810 810 810 810 809 808 806
806 803 800 799 795 791 794 795 791 796 799 792 790 793 794 800 809 809 805 801 799 800 801 799 800 803 806 810 811 810 811 813 817 818 819 821 822 823 824 825 825 826 827 826 826 826 825 824 824 824 824 824 824 824 823 822 822 822 821 821 820 820 819 818 818 817 817 817 817 816 816 815 816 816 817 816 815 813 811 809 809 808 808 808 807 805
801 804 802 797 792 792 797 799 799 802 798 792 793 797 798 803 807 803 799 801 802 802 804 804 803 805 809 812 813 813 815 816 818 819 821 822 822 824 825 826 827 828 828 828 828 827 827 826 825 825 824 824 824 823 823 823 822 821 821 821 820 819 818 817 817 817 816 816 816 816 815 815 814 814 815 815 814 812 810 808 808 807 806 805 804 803
798 802 801 793 787 791 798 801 801 799 794 791 794 796 796 798 800 799 800 803 805 805 806 807 807 809 812 813 814 816 817 818 820 820 821 822 822 823 825 826 828 829 829 829 829 828 828 828 827 826 825 824 824 824 823 823 822 821 821 820 819 819 818 817 816 816 815 814 814 814 814 814 813 813 812 812 811 810 808 807 806 806 804 802 801 801
796 795 798 796 791 790 793 796 795 793 791 791 793 794 794 797 799 800 801 802 804 806 806 807 809 811 813 815 816 818 819 820 821 821 821 822 822 823 825 827 828 830 830 830 830 830 830 829 828 827 826 824 824 824 823 822 822 820 819 819 818 818 817 816 815 814 813 813 812 812 812 811 811 810 809 809 808 807 806 805 804 804 802 800 799 799
792 792 797 799 794 789 790 790 791 792 791 791 793 795 797 799 800 801 803 802 803 805 806 808 810 811 814 816 817 818 819 820 822 822 822 823 823 824 825 826 827 829 830 830 831 832 832 831 829 828 826 825 824 824 823 822 821 820 819 818 818 817 816 815 814 813 812 811 811 810 810 809 808 808 807 806 805 804 803 802 801 800 799 798 797 796
790 792 796 797 796 796 795 790 788 792 793 792 794 796 798 800 801 802 804 803 804 806 808 809 811 813 815 817 818 819 820 821 823 824 824 825 825 825 825 826 826 827 828 829 830 831 832 831 830 829 827 826 825 824 822 822 821 820 819 818 817 816 815 814 813 811 810 810 809 808 807 806 806 805 804 803 802 801 799 798 797 796 795 794 794 793
788 791 795 796 795 795 794 790 789 791 791 790 793 795 797 799 801 802 804 804 805 807 809 810 813 815 816 817 819 820 821 821 823 824 825 825 825 825 826 827 827 827 827 827 828 829 829 829 829 829 828 826 825 824 823 821 820 819 818 817 816 815 813 812 811 810 808 807 806 805 804 803 803 802 801 800 799 797 796 795 794 793 792 791 790 789
791 794 794 795 796 794 791 789 791 794 794 792 792 793 793 796 799 801 803 805 806 807 809 811 813 814 815 817 818 819 821 822 822 823 824 825 825 826 827 827 827 827 827 826 826 826 827 827 827 827 827 826 825 824 822 821 819 818 817 816 815 814 812 811 809 807 806 805 804 803 802 801 800 799 798 797 795 794 793 792 792 791 790 789 789 788
795 796 791 792 797 796 790 788 790 795 797 794 792 792 792 793 795 797 800 803 805 807 809 811 812 813 815 816 817 819 821 822 822 824 825 825 826 826 826 827 827 827 826 826 826 825 825 825 824 824 824 824 824 823 822 820 819 818 816 815 814 813 811 810 808 806 804 803 802 800 799 798 797 796 795 794 793 792 791 790 789 789 787 786 786 786
796 797 796 796 794 791 790 790 792 796 797 792 790 792 791 791 793 795 797 801 804 806 808 810 812 813 814 816 817 818 819 820 822 823 824 824 825 825 826 827 827 826 826 825 825 824 824 823 822 822 821 821 821 821 820 819 818 817 816 814 813 812 810 809 807 805 803 801 800 799 798 797 795 794 793 792 791 790 789 787 785 784 784 783 782 781
Wind_Speed
9 8 9 10 10 13 15 15 17 14 10 12 13 12 11 11 9 9 8 7 9 8 11 9 6 10 10 8 8 7 3 3 8 10 9 11 12 11 11 12 14 15 14 18 21 21 21 20 20 19 19 19 18 17 18 18 17 16 16 16 16 15 14 14 13 12 12 11 11 11 11 10 10 9 7 7 7 7 8 9 9 8 6 6 5 4
10 10 10 13 13 14 15 14 17 14 9 12 11 11 11 11 7 8 9 8 8 6 12 16 10 9 11 10 8 5 1 4 6 9 9 10 11 10 11 12 12 12 13 17 19 20 21 21 20 20 19 20 19 19 19 19 18 17 16 17 17 16 15 14 13 13 12 12 11 11 10 10 10 10 8 8 7 7 9 9 8 8 7 7 6 5
10 10 12 15 14 12 12 14 15 11 8 11 9 8 10 11 6 7 7 8 8 5 7 15 11 8 11 12 11 10 8 8 8 8 9 12 13 10 10 10 7 8 13 16 17 20 22 22 22 20 19 20 20 20 20 19 19 18 17 17 16 16 16 14 13 13 12 12 11 10 10 9 9 10 9 7 7 7 8 9 8 7 8 7 6 6
9 10 14 14 13 12 11 14 14 7 8 11 7 7 10 11 8 6 8 11 9 7 7 11 10 8 11 13 14 16 14 12 12 11 9 10 13 13 12 10 7 11 14 16 17 19 21 22 23 21 20 21 21 20 21 20 20 19 18 18 17 17 16 15 14 13 12 12 11 10 9 8 7 8 9 7 7 7 7 9 9 7 8 7 6 6
9 11 14 14 13 14 12 13 13 8 8 11 11 10 10 14 11 3 6 11 8 7 6 7 8 9 12 13 13 13 12 12 12 12 9 8 9 12 13 14 13 14 13 15 17 18 20 22 23 22 21 21 21 21 22 22 21 20 19 19 19 18 17 16 16 15 13 12 12 10 10 9 7 7 9 8 8 8 7 8 9 8 8 7 6 6
11 10 13 16 14 13 13 12 12 10 8 9 13 14 11 15 13 5 5 8 7 7 7 8 7 6 9 9 8 8 9 9 10 10 10 8 9 9 10 13 12 9 9 13 16 17 18 22 23 23 22 22 22 21 22 23 22 21 21 21 20 19 18 17 17 16 14 14 14 12 11 11 9 9 10 9 9 9 8 8 8 9 8 7 6 6
9 8 9 13 14 14 13 10 13 13 9 7 11 14 12 13 12 13 9 7 7 7 10 11 7 4 6 6 5 7 8 7 8 11 9 6 7 10 9 10 10 7 8 10 12 16 18 20 22 22 22 22 21 21 21 22 22 22 21 22 21 19 18 18 18 18 16 15 15 14 13 12 11 10 10 10 9 9 8 8 8 8 8 8 7 7
10 11 8 9 11 13 12 9 12 13 11 7 9 15 11 8 8 13 10 8 9 5 9 10 9 4 5 2 2 6 8 5 4 8 10 6 8 12 11 10 10 9 10 9 8 11 16 19 21 21 22 22 21 21 21 21 22 22 22 23 22 20 19 18 19 20 18 16 15 15 14 12 12 11 10 10 10 8 7 8 7 7 8 8 7 7
10 10 11 12 11 10 10 9 10 13 12 5 4 10 11 6 8 7 7 9 10 7 7 10 10 6 5 4 2 5 8 5 4 5 11 11 11 11 12 12 13 10 9 10 8 8 12 17 21 21 20 21 21 21 21 21 22 22 22 23 22 21 19 19 20 20 19 17 15 15 14 12 11 11 10 11 11 9 8 8 8 7 7 8 8 7
9 8 9 13 11 9 11 11 10 13 12 2 5 5 8 9 10 8 8 9 8 11 8 9 12 7 4 5 4 4 6 6 6 5 8 13 13 11 12 13 12 9 7 8 9 9 11 15 20 22 21 21 22 21 20 20 21 22 23 23 23 21 20 20 21 21 20 18 16 15 15 13 12 11 10 10 11 10 8 8 8 8 7 8 9 8
9 9 10 11 12 10 11 11 9 12 14 5 5 6 7 7 9 7 8 8 8 11 10 10 14 11 4 3 5 4 4 3 4 5 4 6 9 11 13 13 11 8 7 7 8 11 14 16 20 21 22 23 21 18 18 19 20 22 22 23 23 22 20 21 21 21 21 19 17 16 16 15 14 12 11 10 12 12 10 10 10 9 8 8 8 9
7 9 9 8 10 10 11 13 10 10 14 8 4 6 8 6 7 7 7 8 8 11 11 13 16 13 8 5 6 7 5 3 1 2 2 1 2 4 8 12 13 12 11 11 11 11 13 15 18 19 20 21 19 17 18 19 18 20 21 22 23 22 21 21 22 21 21 20 18 17 16 16 15 13 12 11 12 13 12 11 11 10 9 9 9 9
6 8 9 9 7 8 11 12 9 7 11 9 6 8 8 8 7 8 8 8 8 9 10 14 17 10 6 6 9 9 8 5 3 3 2 1 2 2 4 7 10 12 13 13 13 12 11 12 16 18 20 21 21 21 20 20 19 19 20 22 23 23 22 21 21 22 21 20 19 18 17 16 16 14 13 12 12 13 13 12 12 11 10 10 10 10
7 9 12 11 8 8 12 10 10 9 9 10 8 8 8 7 8 9 9 8 8 9 9 14 17 8 7 7 9 10 9 7 6 5 3 2 3 3 5 6 7 10 11 9 10 11 11 12 15 16 16 16 19 22 22 22 21 19 19 21 22 23 23 22 21 21 21 20 19 18 18 16 16 16 14 13 13 13 13 13 13 12 11 11 11 10
8 8 12 10 8 12 14 10 9 9 10 11 10 9 9 7 7 7 8 8 8 9 10 13 13 8 8 7 9 11 10 8 7 6 4 4 5 5 5 5 7 10 10 8 9 10 10 13 15 14 11 11 15 19 21 22 20 17 19 21 22 22 22 22 22 22 21 21 19 19 18 17 16 16 15 14 13 13 13 13 13 13 12 11 11 11
10 6 12 8 3 13 16 12 8 6 9 11 10 9 9 8 8 6 8 9 8 9 10 9 4 6 7 7 9 11 10 9 8 8 7 6 7 7 5 4 5 7 8 8 8 8 9 12 13 12 12 12 13 16 18 20 19 19 20 22 22 22 22 22 22 22 22 21 20 19 19 18 17 16 16 15 14 13 13 13 13 13 12 11 10 11
10 5 13 10 3 11 14 12 9 9 6 7 9 11 9 10 10 8 9 10 10 9 9 8 6 8 7 8 9 11 12 10 8 9 8 8 8 7 6 5 4 4 6 6 7 9 9 9 8 9 11 12 12 14 17 18 17 18 21 23 22 21 21 21 21 21 21 21 20 20 20 19 18 18 17 16 15 15 14 14 13 14 13 12 11 10
5 5 11 11 9 9 7 7 10 13 10 5 8 9 9 11 10 7 6 9 11 10 9 12 12 9 8 7 8 12 12 10 9 9 8 8 8 6 6 5 4 3 3 5 7 8 8 10 13 13 14 12 12 14 16 17 17 15 16 19 21 21 21 20 20 21 21 21 21 20 20 20 19 18 17 16 16 15 15 14 14 14 14 14 12 11
2 3 9 10 9 9 7 7 9 13 15 10 6 5 8 11 9 6 6 8 11 11 9 12 14 10 7 7 10 11 10 10 8 8 7 8 8 6 6 6 6 6 3 3 6 6 3 8 14 16 15 13 12 11 11 11 14 14 13 15 16 19 21 20 19 21 22 21 20 19 20 20 19 18 17 16 17 16 16 16 15 15 14 14 14 13
4 3 5 8 8 9 9 10 9 10 14 13 9 8 9 9 8 7 7 8 9 11 9 10 11 6 3 5 9 10 9 9 8 7 7 8 8 7 7 8 9 9 7 5 6 7 7 2 6 12 14 12 11 12 11 9 10 13 15 17 17 19 22 22 22 23 23 21 20 19 19 20 20 19 17 17 17 17 17 17 16 16 16 15 15 14
5 5 2 6 8 8 8 8 6 5 9 11 9 8 8 7 7 8 10 9 8 9 8 9 9 5 5 4 7 10 8 7 8 7 6 8 9 9 9 10 10 10 10 9 7 7 9 10 7 6 10 9 7 11 16 15 11 12 15 17 21 22 22 23 23 22 21 20 18 18 19 20 20 20 19 18 18 18 18 17 17 17 16 16 16 15
4 6 3 6 7 7 5 4 2 4 4 6 8 9 10 9 8 9 11 11 9 9 8 7 7 7 4 2 6 9 7 7 8 8 8 8 9 10 10 11 11 10 10 9 8 7 8 10 12 11 7 5 4 6 14 18 15 15 19 21 21 22 20 20 20 19 16 15 15 16 17 18 19 20 20 19 19 19 18 18 19 18 17 17 17 17
3 6 5 3 3 3 6 5 3 6 7 5 5 7 9 11 11 10 11 10 10 12 8 3 7 6 4 5 7 8 7 8 8 8 9 8 9 10 10 11 11 11 10 9 8 7 8 9 12 15 15 14 13 12 2 11 15 14 20 22 16 15 17 17 17 16 15 15 14 14 15 16 17 18 20 20 20 20 20 19 19 19 19 19 18 18
3 6 6 1 3 4 6 2 4 5 6 6 6 6 6 8 10 9 7 6 8 12 10 5 7 5 5 6 8 8 9 9 8 9 9 8 9 10 10 11 11 11 11 10 9 9 10 13 15 16 17 17 18 21 18 2 9 6 8 13 11 11 13 13 14 15 15 15 14 15 16 16 17 18 19 20 20 20 20 20 20 20 20 20 19 19
3 5 5 4 6 4 3 4 6 5 6 8 8 5 5 8 9 7 5 5 6 10 11 6 5 6 8 9 9 10 10 10 9 10 9 8 8 9 9 9 10 10 11 12 12 12 13 15 16 16 16 17 16 17 18 10 3 6 6 6 9 12 14 13 12 12 13 15 15 15 17 17 18 18 19 20 21 21 21 20 20 20 20 20 20 19
4 2 2 4 6 6 4 4 5 7 8 8 7 4 5 9 10 7 6 6 7 8 7 1 6 9 11 12 11 12 11 11 10 10 10 9 9 9 9 9 9 10 11 12 13 13 13 14 16 17 17 17 16 15 14 13 12 11 10 7 2 7 12 12 11 10 12 15 15 15 17 17 19 19 19 21 21 21 21 21 21 21 21 20 20 20
4 1 1 2 2 1 1 3 4 4 10 10 7 5 6 8 8 8 9 8 6 6 3 6 13 15 15 14 13 13 12 11 10 10 10 9 9 10 10 9 10 10 11 12 12 12 13 13 15 18 18 17 17 16 15 14 16 17 15 13 8 3 3 5 8 9 12 14 13 15 17 17 17 17 18 20 22 21 21 21 21 21 21 21 21 21
4 3 2 1 2 4 4 4 6 3 5 6 5 5 5 5 6 10 11 6 4 5 4 10 17 18 17 16 15 13 12 11 10 9 8 8 9 10 9 10 12 12 12 12 12 13 13 13 14 16 17 18 17 17 17 16 16 17 17 16 13 10 9 7 4 5 9 13 12 13 15 16 18 18 18 21 23 22 20 20 21 21 21 21 21 21
5 3 2 1 1 2 3 3 4 3 2 2 1 2 2 3 7 10 8 5 7 6 5 12 16 16 16 17 16 14 12 11 10 9 8 8 9 9 10 11 12 12 13 13 13 13 13 13 14 15 17 17 18 18 17 17 17 17 16 16 14 13 13 11 9 9 8 10 14 14 13 14 17 18 19 21 21 20 19 20 20 21 21 22 22 22
4 1 2 3 2 2 1 1 2 2 1 3 2 1 1 2 2 3 3 3 6 4 12 16 15 14 15 15 15 13 11 10 9 8 8 8 9 9 10 11 11 12 12 13 12 12 12 12 14 15 16 16 17 17 17 16 17 16 15 15 13 13 13 12 8 8 10 9 10 13 13 13 14 14 15 17 18 18 19 20 20 21 21 22 22 22
2 0 2 5 5 4 2 2 3 3 4 5 4 3 4 3 2 2 2 1 3 7 14 18 16 13 12 14 14 13 12 11 10 9 7 7 8 9 10 10 11 11 12 12 12 11 11 12 14 14 14 15 16 16 16 15 15 15 15 15 13 12 12 11 9 6 8 10 11 11 12 13 14 14 15 15 15 16 17 19 20 21 21 21 21 21
3 1 1 3 6 4 3 4 4 4 5 7 6 7 7 6 5 3 1 1 4 9 14 16 13 10 11 13 13 12 12 12 11 10 8 7 7 8 9 10 10 10 11 11 11 11 11 12 13 15 15 15 15 15 15 14 14 14 14 14 14 14 13 11 10 9 6 7 10 11 11 11 11 12 14 14 14 14 14 16 17 18 20 22 22 22
3 3 2 4 6 4 5 4 3 4 7 8 6 7 8 7 4 4 3 2 1 7 10 10 10 11 12 13 12 12 13 12 9 8 7 6 6 7 9 9 9 10 10 10 10 11 11 12 13 15 15 15 15 15 14 14 14 13 13 13 12 12 13 12 11 11 10 8 9 11 11 10 10 11 12 13 15 14 13 15 17 19 20 21 21 22
2 5 4 4 5 5 6 3 4 7 7 3 3 4 1 3 4 4 4 5 5 3 3 6 11 15 13 12 12 12 12 11 9 7 5 5 5 6 8 8 8 9 9 9 10 10 11 12 12 14 15 14 14 14 13 14 14 12 12 12 10 11 12 13 11 11 12 12 12 12 12 12 11 10 11 13 15 16 16 17 18 20 23 23 20 20
2 5 4 3 5 5 5 5 7 8 4 4 6 6 6 4 3 5 6 6 6 7 10 12 15 16 13 13 12 10 10 11 10 7 5 6 5 5 6 7 7 8 8 8 9 9 10 11 12 14 13 13 13 12 13 14 14 13 13 12 11 11 11 11 10 10 12 13 13 12 13 13 12 12 12 10 10 13 16 18 18 18 20 23 24 21
3 4 3 3 6 5 4 6 6 3 4 6 5 3 3 3 4 6 6 4 4 7 10 12 13 12 12 12 12 9 8 10 8 5 5 6 4 5 6 6 6 7 7 8 8 9 9 9 11 13 13 12 12 11 12 14 14 14 14 13 12 12 11 10 9 9 11 13 14 15 15 14 13 13 14 13 10 10 12 15 16 17 17 19 24 26
5 4 4 3 5 5 6 7 4 4 4 4 4 3 2 3 5 4 3 5 5 4 7 10 11 9 10 9 9 7 7 8 7 6 5 5 5 5 5 6 6 6 6 7 8 8 8 9 11 12 12 11 11 11 12 13 14 14 13 13 14 13 12 11 10 9 10 13 14 15 16 16 15 12 12 13 12 11 11 12 14 17 18 18 22 24
3 4 4 4 4 4 6 6 6 6 5 5 7 7 3 1 1 2 2 5 6 3 5 10 10 9 9 8 8 8 7 8 8 7 7 6 4 4 4 5 5 5 6 6 7 8 8 10 12 12 11 11 11 11 13 14 13 13 12 13 14 14 13 12 12 11 11 13 14 14 14 14 14 12 12 12 12 12 12 12 11 13 16 20 24 25
3 4 4 5 5 5 6 7 7 6 3 5 9 7 5 2 1 2 5 7 8 6 6 8 10 10 9 8 8 7 7 7 5 6 9 7 3 3 4 4 5 6 6 6 7 8 9 10 11 11 10 11 11 12 13 13 12 12 12 12 13 13 13 12 12 13 13 13 13 13 13 14 14 13 12 13 14 13 12 13 12 12 13 18 22 24
5 5 5 6 6 5 6 6 5 2 3 8 9 7 6 3 1 5 7 6 8 9 7 7 9 9 7 6 6 5 6 3 3 5 6 5 3 3 4 6 7 8 8 8 9 10 10 10 10 10 11 11 12 13 13 13 12 12 12 12 13 13 12 12 12 12 13 13 13 14 14 14 14 13 13 14 16 15 15 17 18 17 16 17 18 19
4 5 5 6 7 6 6 7 4 1 6 9 9 7 6 4 4 6 4 4 7 8 7 6 8 8 6 5 4 4 1 5 6 4 3 2 2 3 4 5 6 8 10 11 13 14 13 11 10 11 12 12 12 13 13 12 12 12 12 13 13 13 13 14 13 13 13 13 14 14 14 13 12 11 10 11 13 15 16 18 20 19 17 17 17 18
4 4 5 6 7 6 5 6 6 2 5 7 9 8 5 4 3 3 4 6 6 7 6 5 5 7 6 3 2 2 1 4 3 2 2 2 3 4 4 5 5 7 8 9 11 12 13 14 14 14 14 13 13 13 13 13 13 13 13 13 14 14 15 15 14 14 14 13 13 13 13 13 12 10 8 7 9 12 15 17 18 18 18 17 17 19
4 4 5 6 6 6 5 6 7 3 5 8 9 7 4 3 1 4 6 6 6 7 6 3 2 4 4 3 2 2 2 2 3 3 3 4 3 3 3 4 5 6 7 8 10 10 11 13 15 16 16 15 15 14 14 14 15 14 14 14 15 15 16 15 15 15 15 15 14 13 13 13 12 12 10 9 9 11 14 16 15 17 19 19 17 18
4 5 5 3 4 5 5 4 3 1 6 8 5 2 2 4 4 5 5 5 5 5 5 3 3 3 3 3 2 2 2 2 3 4 4 4 4 4 4 5 5 6 7 9 10 11 12 13 14 16 17 17 16 16 15 15 15 15 16 16 16 15 15 15 15 16 16 16 15 14 14 14 13 13 13 12 12 12 14 15 14 15 18 18 17 18
3 3 4 3 3 5 4 1 2 2 6 7 2 2 6 8 7 4 3 4 5 4 3 3 4 5 4 3 2 2 2 2 3 4 4 4 5 5 6 6 7 7 8 8 9 10 11 13 14 16 18 18 18 17 17 16 16 17 18 17 16 15 15 15 16 16 16 16 16 16 16 15 15 15 14 14 14 13 14 14 14 15 15 16 17 18
3 2 3 4 4 5 5 3 2 2 4 6 4 4 6 6 6 4 2 2 4 4 3 2 3 4 5 3 3 3 3 2 2 4 4 5 6 7 7 8 8 8 8 8 9 9 11 13 14 15 17 18 18 18 17 16 17 18 18 18 17 17 17 17 17 17 17 17 17 17 17 17 16 16 15 15 15 14 15 16 15 15 16 16 16 17
7 6 5 5 5 5 4 4 6 5 5 6 5 5 5 5 4 3 4 3 3 4 4 3 2 3 3 4 4 4 3 2 3 4 4 4 6 7 9 9 10 10 11 11 11 11 11 12 13 14 16 17 17 17 17 17 17 18 18 18 19 19 19 18 18 18 18 18 18 17 17 17 16 16 15 15 15 15 16 16 16 16 16 16 16 16
4 7 7 7 8 7 4 1 2 4 5 6 6 5 6 7 5 4 4 4 4 4 4 4 4 4 4 4 5 5 4 4 4 4 4 5 5 6 8 10 11 12 13 14 14 14 13 12 12 13 15 16 17 17 18 19 19 19 20 20 19 20 20 20 20 20 20 19 19 18 18 18 17 17 16 16 17 17 16 16 15 15 15 15 15 15
3 4 5 5 6 8 8 5 5 6 6 7 8 8 7 7 7 7 7 6 6 6 6 6 6 5 5 5 5 5 5 5 4 5 5 5 5 7 8 10 11 13 15 16 16 16 15 15 15 15 16 16 16 17 18 19 20 21 21 21 20 19 20 20 20 21 21 20 20 19 18 18 18 18 18 17 17 17 16 16 16 17 18 18 17 17
2 5 6 5 6 7 6 5 4 6 6 6 7 9 9 8 9 9 9 8 8 8 7 7 7 7 7 6 5 5 5 5 5 6 6 6 7 8 9 10 12 14 15 16 16 17 17 18 18 18 17 17 16 17 18 19 20 21 21 21 20 20 20 21 21 21 21 20 20 19 18 18 18 18 18 17 17 17 17 19 19 20 22 23 23 23
5 4 5 7 7 5 4 5 4 3 5 5 4 6 8 8 9 10 9 9 9 9 8 7 7 7 7 7 7 7 6 6 7 7 7 8 9 10 10 12 13 14 15 16 17 18 19 20 20 20 20 19 18 18 18 18 19 19 20 20 20 20 21 21 21 21 21 20 20 19 19 19 19 19 18 18 18 18 19 21 21 22 23 25 26 26
Wind_Direction
192 201 202 211 212 207 212 217 225 233 253 248 217 202 213 227 215 160 153 174 186 176 136 147 165 149 166 178 179 192 185 217 192 169 168 163 162 174 177 175 174 174 173 169 172 173 168 170 171 166 168 171 168 167 164 165 168 165 163 162 160 163 163 161 163 165 169 170 172 176 173 172 173 169 165 163 160 152 144 142 146 145 138 140 143 148
196 213 207 208 217 212 211 219 231 240 268 272 238 195 206 230 214 146 154 176 203 205 137 146 168 159 170 175 163 159 160 258 211 160 166 172 162 169 176 174 177 177 171 168 170 172 172 172 172 168 170 173 172 170 169 170 170 168 169 167 164 165 167 169 167 169 175 175 176 177 178 178 172 171 174 173 168 157 149 149 151 146 142 145 144 146
199 221 214 205 217 218 213 220 230 239 241 254 248 197 204 220 190 133 158 181 189 219 154 149 161 166 168 164 160 172 184 199 198 182 190 181 159 158 172 169 182 192 174 170 172 174 174 174 172 171 173 176 175 174 174 175 172 171 173 170 169 169 170 173 171 172 176 178 179 178 182 182 173 174 178 176 172 164 157 158 162 155 148 150 148 149
195 216 217 207 211 216 214 216 221 222 222 237 234 200 209 209 189 161 183 185 182 212 197 170 177 175 167 164 169 180 181 172 176 190 203 185 158 156 167 164 188 204 181 171 175 176 176 175 174 173 175 177 177 177 178 178 175 175 176 173 173 175 173 175 175 175 176 175 179 180 183 186 173 173 177 175 175 173 167 165 167 167 160 159 156 153
211 206 210 208 204 212 214 209 212 210 213 228 230 221 215 211 210 188 171 171 183 219 198 180 191 171 165 170 172 172 166 160 166 179 187 181 163 153 160 171 187 191 181 177 178 178 178 177 177 175 177 179 179 180 180 181 180 178 177 175 175 177 176 177 175 175 175 171 175 177 179 183 173 171 178 180 181 181 179 175 174 173 170 171 163 156
222 197 201 209 197 207 217 202 204 217 218 215 228 236 233 226 212 142 143 175 187 211 189 197 213 162 147 147 147 150 152 156 160 169 173 168 165 157 160 177 183 175 179 187 181 179 182 179 178 176 178 182 181 182 183 183 183 180 178 176 175 177 178 179 177 176 174 171 176 176 177 182 179 179 184 185 187 185 186 186 178 175 176 177 172 165
221 190 201 210 186 196 216 205 201 213 232 219 210 225 246 260 220 168 178 214 216 204 182 202 225 156 131 120 139 157 159 169 167 165 164 157 173 175 175 179 175 171 188 197 187 183 185 182 181 179 180 185 183 182 184 184 184 181 178 177 176 178 178 179 177 176 176 175 179 180 181 185 185 188 189 188 194 189 187 190 178 174 177 178 179 173
212 181 182 200 183 196 210 207 197 199 232 236 188 200 218 274 243 186 189 225 234 198 154 195 226 192 157 145 162 152 145 163 182 162 154 172 206 184 173 177 179 184 187 190 195 192 189 186 184 181 182 187 185 181 182 183 183 180 178 177 177 178 179 179 178 178 179 179 181 184 186 188 189 193 190 187 195 192 188 190 180 176 175 177 183 172
203 179 173 194 196 203 208 204 193 195 228 252 149 195 198 214 236 207 207 230 239 231 175 192 218 206 163 145 82 108 123 145 199 172 154 175 213 198 173 177 180 179 182 189 198 202 197 192 188 183 184 191 190 184 184 182 180 178 177 177 178 179 179 180 179 179 182 182 182 185 188 190 191 194 189 185 192 190 189 190 180 178 174 175 181 173
175 180 184 202 209 207 208 205 192 197 216 158 87 222 214 209 222 221 232 233 236 242 222 199 208 202 151 142 142 133 141 158 178 177 160 168 188 193 179 180 177 168 178 197 203 200 196 197 193 184 186 197 196 187 186 185 180 176 176 176 179 180 179 181 180 180 184 184 184 187 190 192 190 191 188 184 188 187 186 189 183 182 180 177 180 180
154 183 195 211 219 211 206 204 191 201 220 185 120 214 218 212 223 222 239 241 233 232 223 223 211 177 137 180 168 144 135 141 155 157 160 156 166 177 174 174 178 174 184 205 216 206 196 199 197 185 186 199 198 187 187 191 182 175 177 176 178 180 180 181 181 182 185 186 187 189 191 193 191 190 187 183 187 187 186 190 189 189 187 184 182 181
164 190 196 213 224 223 211 199 185 199 228 226 169 204 203 193 214 213 223 232 236 226 204 224 225 183 163 187 146 112 98 84 49 100 121 113 141 177 160 162 172 171 180 199 206 198 193 196 193 184 187 196 197 187 187 194 186 178 179 177 178 181 181 182 182 183 186 187 190 191 191 194 193 192 191 186 187 188 189 192 193 194 191 192 188 179
186 198 201 206 210 236 224 195 182 200 221 220 202 213 204 185 195 202 210 212 226 236 203 210 231 213 149 131 125 114 104 97 69 60 67 97 134 163 129 147 168 165 173 190 189 179 183 193 190 186 188 191 194 190 185 190 190 182 182 181 181 183 182 183 184 185 187 189 192 192 192 195 195 196 196 192 192 191 193 195 196 197 193 195 196 186
184 191 200 194 175 221 236 202 181 193 203 207 208 214 207 191 193 195 205 209 212 233 222 209 218 200 124 128 126 113 99 91 90 85 71 87 123 132 114 126 160 168 174 183 184 179 182 190 191 192 191 187 193 192 186 189 189 181 182 184 185 186 183 184 185 186 188 189 192 193 193 195 195 198 199 197 199 196 196 198 198 200 197 197 200 195
191 188 186 186 176 199 226 230 202 193 195 205 217 222 220 209 200 197 204 209 204 211 223 219 208 169 141 145 122 112 105 94 93 84 82 107 113 103 91 108 142 162 171 174 182 185 183 189 194 196 193 189 197 197 191 188 181 177 184 187 187 187 184 184 186 187 189 190 192 192 193 196 196 198 200 200 203 201 200 200 200 204 204 200 201 199
203 186 153 161 192 185 205 238 245 233 203 197 213 224 229 222 209 217 215 208 209 205 208 214 185 106 125 134 121 122 114 101 95 80 75 79 73 69 66 72 105 138 160 174 180 179 182 193 196 194 192 193 200 203 198 190 182 181 185 185 187 190 187 186 187 188 190 191 192 192 193 195 196 197 200 200 201 203 204 202 202 206 208 207 202 197
203 159 134 146 177 181 205 230 227 242 234 193 208 217 228 236 229 233 220 205 213 215 197 175 121 99 133 144 137 136 120 107 97 79 76 75 71 68 62 46 40 99 145 169 181 180 179 189 204 211 207 197 194 206 206 196 189 187 182 180 185 190 189 187 188 191 192 191 191 192 193 194 196 198 200 201 201 202 203 203 205 206 207 209 206 198
194 144 142 170 191 179 213 240 219 238 255 227 208 209 218 231 240 257 241 210 208 215 201 173 155 149 161 159 155 150 129 113 97 78 75 75 77 82 75 59 30 48 122 154 161 164 168 185 197 200 202 199 195 209 210 196 194 195 184 180 184 188 188 188 190 195 196 193 191 192 193 195 196 198 201 202 201 202 202 201 204 207 206 207 208 204
252 157 147 178 195 169 183 224 221 233 249 257 264 255 232 221 220 242 254 231 210 212 207 172 160 168 180 169 164 155 127 110 97 80 79 74 69 73 72 62 45 41 56 127 121 105 116 193 191 178 176 185 190 208 223 208 201 203 193 186 186 188 190 191 194 199 200 196 192 192 194 195 197 198 200 202 201 201 202 202 202 206 208 207 207 207
281 235 153 176 187 166 180 207 209 212 227 245 270 267 243 229 213 213 239 245 218 214 206 170 161 161 135 136 141 133 113 106 99 84 77 72 67 62 52 45 39 35 31 48 84 72 43 45 176 168 169 174 173 187 209 215 209 207 204 198 194 195 196 196 199 202 201 200 196 193 192 194 197 198 198 199 200 200 202 203 203 205 207 208 208 207
259 251 180 157 170 178 186 194 203 213 214 219 228 229 223 224 215 209 226 239 229 221 208 183 174 136 74 71 112 116 112 106 103 99 84 69 66 61 51 45 40 35 32 34 50 55 41 41 64 135 173 181 169 182 197 200 201 217 224 213 199 196 196 195 197 201 201 201 201 197 195 195 195 197 198 198 199 201 201 202 203 205 206 207 208 209
253 256 219 156 177 198 169 124 32 339 301 231 216 219 217 213 213 214 219 224 233 237 225 194 164 125 95 102 117 118 123 115 107 104 92 77 71 66 58 54 49 45 41 38 43 46 42 45 57 71 96 129 130 179 203 198 188 202 223 221 203 194 194 192 195 202 203 201 204 205 204 201 197 198 201 200 199 202 201 201 203 204 205 206 207 209
345 278 254 178 165 139 94 67 342 317 315 292 245 242 232 212 212 222 220 217 231 243 238 151 115 122 141 138 122 118 117 112 109 102 95 86 77 72 66 61 59 57 53 49 49 51 53 50 52 56 55 57 61 51 40 204 194 199 221 224 207 191 194 190 190 199 201 201 206 209 212 213 208 204 205 204 202 203 203 203 203 203 205 207 207 206
338 255 254 225 117 96 84 62 284 291 290 260 232 251 259 232 225 234 243 245 239 234 225 154 117 144 165 135 121 124 121 116 113 105 98 93 83 78 70 59 57 58 57 56 51 46 50 48 43 45 46 48 52 44 35 16 205 193 219 225 210 194 198 194 190 193 195 200 204 206 213 219 217 212 211 211 208 205 206 204 203 203 205 208 209 207
297 236 240 224 196 183 166 188 208 221 237 233 221 233 281 280 272 268 270 278 251 238 239 215 148 145 154 146 137 137 132 121 114 106 98 92 85 83 80 72 64 59 55 55 52 43 41 43 41 41 42 45 52 50 41 36 89 103 118 185 203 200 198 197 198 195 195 203 207 208 213 218 219 217 215 217 215 208 207 207 204 204 205 208 211 210
292 256 278 248 219 210 200 198 198 193 201 220 228 242 264 266 275 278 256 239 229 244 273 272 126 136 150 155 149 143 135 124 119 113 104 97 89 82 81 77 70 63 55 51 51 48 42 41 40 40 41 42 44 47 44 38 38 53 78 92 129 209 202 197 199 198 202 209 211 215 219 218 219 220 217 221 222 213 209 210 208 205 205 207 211 212
288 236 10 343 320 330 13 356 333 220 194 194 196 210 237 247 263 267 251 244 237 243 254 119 129 143 155 157 152 144 137 130 125 117 110 106 98 88 83 81 75 67 60 53 48 48 46 42 39 39 40 41 41 40 38 35 31 33 46 59 50 351 267 210 200 204 212 215 214 219 223 221 220 220 217 222 226 221 215 213 211 209 207 206 209 212
285 210 161 57 7 9 21 18 346 296 188 169 175 189 210 231 241 242 242 261 298 268 211 142 143 151 156 157 152 144 139 132 124 117 112 106 98 91 87 87 82 73 68 61 52 47 44 41 38 36 36 38 39 39 35 32 30 29 32 37 36 23 5 347 319 273 235 223 223 229 227 224 224 223 221 223 225 223 220 218 216 215 211 207 208 212
287 226 162 205 185 23 12 18 346 335 103 125 170 173 189 222 227 233 240 272 289 265 170 151 157 155 151 151 147 142 140 133 122 116 111 104 96 89 86 84 78 71 66 61 56 52 46 42 37 32 31 32 33 35 36 30 27 28 29 27 25 22 11 356 338 321 288 240 228 232 235 233 230 226 223 223 223 221 221 223 221 219 217 213 211 212
292 310 23 290 226 143 15 341 316 312 234 205 205 190 249 229 207 235 241 262 270 209 146 151 155 145 141 143 138 137 138 128 120 116 110 103 97 89 82 77 73 69 63 57 55 54 52 48 41 34 31 30 29 31 32 29 25 24 26 23 18 15 8 358 342 316 305 290 256 239 239 246 249 248 240 229 223 221 222 223 223 223 222 220 216 214
294 334 16 295 256 190 194 244 234 254 253 228 210 210 228 210 176 209 204 171 204 169 150 151 147 135 135 136 134 138 139 133 131 124 105 89 87 89 83 73 68 65 60 54 50 48 49 49 42 36 33 30 30 29 28 27 24 21 22 19 15 12 5 357 349 319 290 293 292 272 255 253 257 260 258 248 236 230 228 228 225 224 224 225 224 220
272 242 142 258 256 215 195 224 222 234 252 243 225 210 213 215 204 190 145 138 200 176 155 146 142 139 140 140 141 145 144 143 142 130 107 78 70 77 78 73 67 62 57 53 46 39 39 40 36 31 28 27 28 27 25 22 20 18 16 12 10 9 5 359 352 344 318 291 296 300 291 281 271 260 256 255 252 248 247 246 242 236 228 224 223 223
274 274 208 218 247 215 176 212 243 234 239 238 221 202 204 208 182 125 105 72 187 189 176 162 153 147 144 147 153 158 158 151 139 124 107 89 76 67 66 68 65 59 55 50 45 39 33 31 30 25 21 21 21 21 21 20 16 14 10 7 7 8 6 3 357 351 346 333 325 327 322 313 301 285 271 262 256 251 248 251 258 259 253 239 227 222
264 270 248 220 239 204 155 168 241 232 228 220 76 70 123 179 165 148 138 100 75 95 135 134 140 141 146 160 166 167 163 141 119 115 102 87 86 74 64 59 53 54 52 45 42 41 31 27 27 22 16 15 13 12 14 14 10 9 6 3 6 9 6 4 360 356 352 347 342 337 333 337 338 317 290 272 265 261 250 243 248 256 264 268 255 234
239 246 250 235 245 221 143 158 226 227 203 90 75 59 47 60 105 113 109 98 92 98 101 113 130 141 157 164 148 139 142 129 122 132 117 89 83 82 76 63 47 44 45 40 36 33 28 24 22 17 11 8 7 6 8 7 3 3 2 360 3 7 3 359 360 0 358 352 347 342 337 340 346 339 327 313 296 283 270 261 257 253 261 277 283 272
304 266 256 235 238 233 178 192 218 195 116 95 92 87 70 98 131 123 117 123 125 125 127 129 133 148 169 155 117 109 143 146 141 147 124 95 81 76 74 67 53 39 32 31 30 25 21 18 15 10 3 358 1 4 5 2 357 356 356 356 360 1 354 350 355 2 1 353 348 347 345 342 342 344 345 342 330 306 287 277 274 267 261 270 281 283
320 299 284 249 230 235 227 211 175 134 154 162 150 156 172 178 180 186 177 151 130 125 140 137 136 158 175 154 122 128 171 177 169 163 142 115 96 83 76 72 66 49 30 22 18 14 15 14 6 359 353 350 354 1 1 355 351 350 350 352 355 353 348 347 352 1 2 353 344 343 344 341 341 344 345 338 327 316 306 291 276 269 260 255 261 262
308 294 302 291 241 231 246 232 191 188 213 187 151 144 125 100 229 288 240 166 152 150 144 142 149 164 170 171 160 153 174 201 198 176 150 126 97 82 84 74 59 47 31 14 4 1 8 6 353 346 345 343 347 355 351 344 343 342 342 347 349 347 345 346 351 355 354 348 340 338 341 341 339 343 346 338 326 320 313 300 284 274 263 256 255 254
265 269 274 274 253 231 245 245 225 222 203 122 122 128 126 114 27 292 241 197 170 162 155 152 159 163 164 173 171 165 191 214 196 152 140 128 83 47 53 34 20 21 13 359 358 0 0 352 338 333 336 336 342 347 340 335 336 334 334 339 339 339 341 344 347 347 343 338 332 329 335 340 340 342 345 339 334 329 316 298 287 281 271 262 259 259
233 237 230 243 250 237 236 243 245 251 113 124 130 127 125 124 174 225 223 193 158 160 166 161 158 157 156 154 161 192 219 206 94 92 110 109 78 49 31 8 358 358 350 346 354 356 347 335 330 330 332 334 339 336 328 328 329 325 326 329 328 330 334 337 340 338 333 331 328 326 330 334 335 339 341 336 332 328 317 305 296 289 283 278 274 270
230 234 231 240 245 230 227 241 246 88 102 132 138 122 120 147 210 219 200 124 132 151 159 164 159 152 148 151 173 209 178 88 85 83 81 76 52 35 18 2 355 350 342 341 347 345 335 329 332 331 328 330 330 325 323 324 322 319 319 318 317 320 324 327 331 331 328 326 323 321 323 323 323 329 332 324 317 312 307 304 303 302 297 287 280 274
237 233 232 239 248 243 235 246 242 172 125 141 132 118 139 191 209 175 126 114 126 134 142 175 171 150 150 166 206 235 39 61 73 68 43 10 6 7 354 354 355 345 339 338 337 335 330 329 330 327 325 327 325 323 323 321 317 315 313 310 309 313 316 319 321 322 323 321 316 314 315 312 311 312 309 297 291 290 289 288 291 296 295 285 277 272
253 251 240 231 243 247 233 239 250 222 144 150 142 133 176 220 160 125 132 127 121 123 134 165 147 131 157 191 222 259 310 348 353 360 353 334 342 348 342 354 354 336 331 329 326 328 329 326 324 322 322 323 322 323 323 318 314 312 308 305 306 307 309 310 312 315 315 313 311 309 306 304 304 302 296 286 277 275 278 280 282 283 280 275 272 271
246 247 254 244 244 245 231 229 264 118 136 154 166 157 136 127 123 142 149 137 138 146 149 157 145 141 174 208 209 231 285 305 311 323 324 318 325 331 334 343 337 327 327 322 321 328 328 322 318 316 315 316 318 319 319 315 311 307 303 304 306 306 304 303 304 308 308 306 307 306 304 302 300 296 293 290 283 276 274 275 276 275 273 269 266 268
233 247 288 309 289 276 282 349 48 101 146 159 167 60 98 117 128 149 155 142 152 162 158 163 162 158 174 215 223 224 245 268 287 300 306 307 312 319 322 323 320 319 319 317 319 325 322 316 313 310 308 310 312 313 313 311 308 304 303 305 307 306 303 301 299 300 300 300 301 301 301 299 295 291 290 287 284 281 276 275 273 269 266 263 262 265
232 269 306 293 270 275 276 250 183 161 158 157 146 114 120 132 139 152 186 177 154 154 161 162 153 152 167 194 218 227 230 238 262 280 293 301 304 310 312 311 311 313 313 313 316 318 314 310 307 304 303 304 306 307 308 307 305 303 304 306 306 304 301 299 296 294 294 295 295 294 293 292 289 287 286 284 281 277 274 272 269 265 263 263 264 266
215 213 229 250 251 257 252 208 195 203 190 174 166 153 156 169 163 165 204 211 169 160 164 158 149 159 173 188 213 236 244 239 251 271 286 291 293 299 304 306 310 312 312 312 311 311 308 302 299 299 299 299 301 303 303 303 302 301 301 302 302 302 300 297 294 291 290 290 290 288 286 284 282 282 281 280 277 274 273 270 264 260 260 260 261 264
203 194 211 239 242 244 257 222 189 224 220 204 201 192 185 191 192 191 208 213 189 176 174 170 175 188 200 202 207 224 239 238 242 255 264 271 281 292 299 304 308 309 309 310 310 309 306 301 297 296 295 295 297 298 299 299 298 298 299 299 299 298 296 294 292 290 289 288 287 286 284 282 280 279 277 276 275 273 273 272 270 268 267 267 269 272
105 173 209 236 243 245 247 230 212 226 229 215 217 223 216 205 202 201 202 206 203 192 184 188 194 199 210 215 210 217 235 245 252 261 268 279 289 291 293 298 303 304 305 306 306 306 305 302 299 296 292 291 292 292 293 294 294 295 297 296 296 295 292 291 290 288 287 287 285 284 282 281 279 277 275 273 272 271 271 271 272 273 274 274 276 279
191 222 231 228 229 238 245 238 229 237 237 222 222 231 229 223 226 223 212 208 213 207 195 197 204 205 210 219 221 222 233 248 260 265 269 273 277 282 290 295 296 297 298 299 301 302 301 300 298 295 292 290 288 288 288 288 289 291 292 293 294 293 291 290 290 287 285 285 283 282 282 281 280 279 278 276 274 274 277 276 273 270 270 271 273 273
250 264 277 267 257 257 286 315 325 293 263 259 257 250 238 229 234 235 224 218 221 219 210 208 215 215 211 215 224 230 239 252 261 265 269 273 277 283 289 291 292 294 297 298 299 299 298 297 296 294 293 291 289 287 285 284 284 286 288 289 290 290 289 289 288 285 283 281 280 280 281 280 279 278 276 275 274 275 277 279 277 273 270 271 274 275